Vertical_Velocity
-1 -3 -3 -8 -9 -6 -8 -3 -4 -4 -8 -20 1 -1 0 2 -1 1 -1 1 1 -0 -0 0 1 -1 -3 2 4 -1 -2 1 -0 2 -0 -3 -1 2 2 3 -3 -1 -1 6
-0 -1 2 1 -2 -4 -6 -2 -2 1 -2 -4 -1 -3 -1 1 -0 -0 -1 -0 0 -1 1 -1 1 -0 -6 2 1 -0 -3 -1 -3 -9 0 -3 -1 -1 1 -0 3 2 1 5
-1 -3 -3 -1 2 -5 -8 -1 -6 -2 -5 -1 -3 -0 -1 -2 -1 -1 -0 -1 0 0 -0 -0 -3 -2 -5 -2 1 2 -3 -0 -1 1 -2 2 -3 -3 -1 1 -3 2 5 0
-1 -3 2 2 0 -2 -10 -3 0 3 -3 -2 -0 0 0 0 -2 -0 1 -3 -0 1 1 -1 -1 -1 -5 -6 -0 -1 -6 -2 0 0 -1 -1 2 2 -0 -3 6 -2 2 -0
-1 -2 -1 1 3 -4 -9 -2 -1 1 -1 -1 -0 -1 -3 0 -2 1 -3 -0 -1 0 2 -7 -3 2 -0 -1 -8 -1 -2 -4 -0 -0 1 0 -0 -0 -0 0 -1 -2 -1 0
-2 -0 1 -0 2 0 2 1 -0 -3 -2 0 1 -3 -3 -3 -0 -5 -3 1 3 1 -7 0 -5 3 0 -1 0 -0 -2 -1 -2 -2 0 2 -2 2 1 1 -0 3 -0 1
-3 -3 1 2 1 5 5 8 6 2 -3 1 -1 0 2 0 -1 -1 -6 6 2 -9 5 2 3 0 0 1 -0 -0 -0 -1 -1 -2 -4 -6 -3 0 -0 -3 1 -0 -2 -1
1 -4 -1 -0 -1 5 -5 -0 12 3 -1 1 -1 1 -0 -1 -4 1 1 -4 -4 -1 1 -2 -4 -4 -6 -3 -1 -0 -2 -2 -2 -4 -1 -8 -3 0 0 1 3 2 2 -1
-0 -1 -2 0 2 -0 -2 -4 -3 3 4 -6 1 1 -0 -0 -0 -3 -3 -2 2 2 1 -2 -2 -2 -3 -5 -8 1 0 -2 -7 -3 -2 -2 -4 -2 0 1 4 2 2 1
-1 -0 -0 0 0 -0 4 -1 -2 6 4 -4 -3 -2 -2 0 1 1 -0 -4 -1 3 -0 -0 -1 -3 -4 -4 -1 -3 -2 -3 -2 -0 -1 -4 -2 -1 2 -3 -1 0 2 2
1 -1 -1 -4 1 2 2 -1 9 3 3 -3 1 2 -2 -0 1 0 -8 -5 -3 -2 -2 -1 -2 0 -4 -2 -2 -3 -2 -3 -1 -1 -2 -5 1 -3 -15 -6 -4 2 -0 1
-0 1 1 -1 -0 2 1 -0 4 5 8 3 5 3 3 -1 4 7 1 -1 -1 -1 -1 0 -0 0 0 -2 -1 0 -5 -7 -6 -8 -7 -2 2 -3 -1 1 2 -2 2 0
-0 2 2 1 2 1 3 0 3 0 6 -5 -1 1 2 1 -1 1 5 2 4 -0 1 -1 -0 0 0 -0 1 -1 -0 0 1 3 2 -0 -1 1 2 1 2 2 1 2
-1 1 2 1 0 -1 3 3 2 2 1 2 -1 2 2 -0 -1 1 3 1 2 2 1 0 -0 1 -1 1 2 -3 5 -3 2 1 -2 -1 4 2 2 -1 1 -1 1 0
2 0 1 0 -0 -2 1 -0 -1 1 -2 -2 -1 2 6 -1 3 2 1 1 2 2 0 1 1 -0 -4 1 -4 -1 2 3 1 2 4 3 -3 1 3 -2 -1 1 0 -2
-0 2 1 1 -2 -3 0 -1 -2 -1 3 1 -1 3 2 4 1 1 1 0 -1 1 3 2 1 1 -1 -2 -0 6 3 2 5 1 -2 3 11 -0 -1 -0 -0 -0 3 3
3 3 1 -0 -5 -0 -1 -4 -2 -1 -1 -0 -2 -1 -0 -3 -1 -3 1 0 -1 -0 1 -2 -1 -2 -6 -1 -1 -0 -0 0 2 1 -4 -1 -4 -1 -0 1 1 -1 3 4
4 7 3 -0 -2 3 3 1 -1 0 -3 -0 -2 -5 -3 -6 -1 -3 -2 -2 1 -2 1 -1 -2 -4 -2 -2 0 1 -0 -1 3 -2 3 5 3 2 1 1 -0 -1 -2 -1
8 6 2 2 3 2 0 -1 -0 1 1 -4 -2 -2 -3 -4 2 1 1 0 -3 3 -1 0 -6 -1 -1 -3 1 1 1 2 0 -2 -0 -1 1 -0 1 0 0 -0 -1 -1
8 2 1 1 -0 1 1 6 1 -0 -2 -3 -4 0 -3 -1 -1 -2 -2 0 -1 -2 -2 -1 -4 -1 3 0 2 1 -0 -0 1 -4 -11 -7 -4 -1 -1 0 3 2 1 -0
5 -1 -1 1 -1 2 0 -2 -4 -0 -2 -1 -0 -1 -1 2 -3 -2 1 -2 -2 -3 -6 -8 -1 -1 -1 0 -0 0 -0 0 1 3 4 4 4 1 -1 -2 1 1 1 -0
1 -5 -1 2 -2 -0 -6 -1 -0 -2 0 1 -1 -1 -0 0 1 -1 -0 -1 -5 -2 -0 -6 -0 -5 -1 -1 -1 -2 -2 -1 -0 2 -1 1 2 2 1 2 1 1 2 1
-2 -3 -4 -2 -0 -2 0 -0 2 1 1 -0 -2 -0 -1 1 0 0 -3 -4 -2 0 -4 -3 -6 -1 -1 -1 -1 -3 1 -0 0 1 2 1 1 4 2 -2 3 2 1 2
-4 -2 -0 -1 1 1 -1 -0 -0 1 0 0 -1 -0 -2 0 -3 0 -4 -4 -5 -2 -1 -5 -3 1 -1 0 -0 -4 -4 0 -0 -1 -0 -0 -0 -1 2 2 3 1 -0 -1
-5 -2 -0 -0 1 0 0 -1 -1 0 -1 -1 -1 -1 -1 -1 -3 -2 -4 -7 -2 -4 -6 -3 -0 1 -0 -1 -2 -1 -2 -1 -2 -1 -3 -2 -0 0 -1 1 1 1 2 1
-4 -2 -2 3 -4 2 1 0 -0 0 -1 -1 -1 -1 -3 -1 -2 -4 -2 -4 -4 -7 -2 -3 -2 -2 -0 0 0 -1 -1 -0 -2 0 -1 -1 0 -0 -1 1 3 3 1 0
-2 0 5 -1 -0 -2 0 -1 -1 -0 -1 -0 -1 -3 -6 -2 -2 -1 -2 -4 -5 -3 -4 -1 2 0 -1 1 -1 -2 -2 -1 0 -1 1 -1 0 2 1 0 3 1 1 0
Height
1520 1515 1509 1503 1496 1489 1481 1475 1473 1471 1467 1467 1473 1483 1480 1476 1473 1472 1473 1471 1469 1469 1463 1463 1458 1454 1443 1431 1430 1427 1420 1417 1417 1412 1413 1413 1414 1417 1411 1394 1360 1378 1370 1414
1519 1514 1510 1504 1498 1491 1484 1479 1476 1472 1469 1480 1483 1481 1479 1476 1472 1471 1470 1469 1467 1466 1466 1466 1454 1448 1433 1432 1430 1427 1423 1422 1427 1412 1415 1411 1418 1418 1414 1400 1398 1392 1373 1416
1518 1514 1510 1505 1500 1494 1488 1484 1483 1475 1473 1477 1481 1481 1479 1476 1470 1468 1468 1466 1466 1466 1464 1460 1459 1452 1437 1432 1428 1422 1421 1428 1423 1419 1430 1434 1432 1423 1415 1399 1396 1402 1418 1425
1516 1513 1509 1504 1500 1495 1492 1489 1490 1487 1482 1479 1480 1481 1478 1475 1474 1468 1466 1465 1463 1466 1466 1463 1456 1447 1443 1430 1428 1426 1427 1432 1425 1424 1428 1431 1437 1432 1430 1424 1426 1417 1431 1434
1514 1511 1507 1503 1499 1495 1492 1491 1489 1485 1482 1481 1481 1478 1477 1472 1470 1469 1465 1466 1460 1461 1460 1460 1451 1450 1442 1439 1431 1433 1431 1429 1426 1429 1425 1425 1434 1440 1437 1438 1441 1435 1432 1433
1512 1508 1505 1502 1499 1494 1490 1487 1485 1485 1480 1480 1480 1477 1473 1470 1469 1462 1459 1457 1458 1454 1449 1446 1441 1438 1437 1438 1438 1437 1442 1444 1439 1434 1425 1421 1424 1449 1447 1451 1453 1450 1446 1447
1509 1506 1503 1500 1497 1494 1492 1487 1483 1481 1476 1477 1473 1472 1471 1467 1467 1464 1457 1455 1454 1447 1442 1436 1433 1433 1435 1436 1437 1437 1440 1449 1442 1445 1445 1443 1444 1448 1449 1451 1455 1454 1451 1446
1506 1503 1500 1497 1494 1491 1487 1485 1482 1478 1474 1470 1470 1468 1467 1466 1463 1461 1455 1451 1447 1444 1440 1438 1438 1438 1435 1431 1433 1436 1437 1442 1451 1454 1468 1461 1450 1450 1452 1451 1454 1456 1452 1447
1502 1499 1496 1493 1490 1487 1483 1480 1479 1476 1474 1468 1466 1465 1465 1465 1462 1460 1453 1449 1446 1443 1441 1444 1465 1453 1450 1442 1435 1432 1434 1439 1445 1471 1455 1453 1453 1453 1452 1451 1444 1454 1453 1450
1497 1494 1491 1488 1485 1482 1479 1474 1473 1471 1468 1462 1462 1462 1462 1462 1461 1458 1452 1450 1445 1442 1443 1446 1452 1449 1441 1448 1456 1452 1447 1453 1461 1472 1472 1461 1456 1451 1449 1450 1455 1454 1453 1452
1492 1489 1486 1483 1480 1476 1473 1470 1468 1467 1461 1456 1456 1456 1457 1456 1456 1456 1451 1451 1446 1443 1448 1449 1444 1444 1449 1449 1453 1459 1457 1464 1466 1476 1479 1461 1455 1451 1457 1460 1455 1454 1452 1450
1486 1483 1479 1477 1473 1470 1467 1464 1462 1461 1460 1455 1452 1452 1452 1452 1452 1452 1449 1448 1446 1442 1443 1446 1444 1441 1448 1449 1439 1455 1456 1464 1467 1464 1466 1461 1460 1459 1459 1458 1456 1452 1449 1448
1480 1477 1473 1470 1467 1463 1460 1458 1458 1455 1454 1450 1448 1447 1448 1448 1448 1448 1448 1445 1443 1441 1440 1441 1439 1442 1436 1437 1444 1450 1456 1456 1456 1457 1462 1459 1460 1460 1459 1456 1454 1451 1448 1444
1473 1470 1466 1463 1459 1456 1453 1451 1451 1452 1452 1451 1446 1445 1445 1445 1444 1443 1443 1442 1440 1440 1438 1437 1434 1434 1437 1447 1451 1456 1464 1460 1460 1456 1460 1458 1459 1459 1458 1455 1452 1449 1446 1442
1465 1462 1459 1456 1453 1450 1447 1445 1445 1447 1450 1447 1444 1443 1442 1441 1442 1441 1439 1439 1438 1436 1434 1433 1439 1442 1445 1452 1459 1468 1469 1469 1466 1462 1466 1465 1461 1459 1457 1453 1450 1447 1444 1440
1456 1453 1451 1448 1446 1445 1444 1443 1445 1445 1447 1445 1442 1440 1439 1440 1439 1439 1438 1437 1435 1434 1434 1439 1443 1447 1446 1452 1465 1473 1472 1470 1469 1468 1464 1461 1460 1458 1456 1452 1448 1445 1443 1440
1447 1444 1442 1440 1439 1440 1441 1441 1440 1441 1444 1446 1442 1439 1439 1438 1437 1436 1436 1435 1434 1435 1438 1443 1448 1451 1452 1461 1469 1472 1470 1468 1467 1465 1461 1460 1459 1457 1454 1450 1447 1443 1440 1438
1438 1436 1435 1434 1435 1436 1436 1436 1435 1435 1439 1440 1443 1441 1440 1441 1439 1438 1436 1436 1435 1438 1442 1447 1452 1456 1461 1473 1473 1472 1469 1465 1464 1463 1462 1460 1458 1455 1452 1449 1445 1441 1438 1434
1432 1430 1430 1433 1433 1433 1433 1434 1435 1435 1439 1438 1444 1451 1451 1444 1443 1441 1439 1438 1442 1443 1447 1452 1456 1468 1477 1474 1472 1470 1468 1467 1464 1461 1459 1457 1455 1452 1449 1446 1443 1439 1437 1434
1425 1427 1429 1428 1431 1432 1433 1432 1433 1434 1437 1441 1448 1451 1451 1450 1447 1444 1444 1442 1448 1456 1455 1453 1464 1472 1471 1471 1470 1469 1467 1465 1463 1459 1455 1453 1451 1449 1446 1444 1441 1438 1436 1433
1420 1420 1422 1424 1427 1430 1430 1432 1434 1439 1444 1447 1450 1451 1452 1450 1453 1452 1450 1452 1449 1459 1459 1460 1476 1476 1470 1469 1468 1467 1465 1464 1462 1459 1457 1454 1451 1447 1444 1441 1439 1436 1434 1431
1412 1415 1418 1423 1426 1428 1431 1440 1442 1441 1447 1449 1450 1452 1452 1451 1451 1451 1450 1452 1450 1460 1456 1467 1479 1470 1467 1466 1465 1463 1462 1460 1458 1456 1453 1450 1448 1445 1442 1439 1436 1434 1432 1430
1409 1413 1416 1419 1426 1431 1427 1431 1440 1444 1447 1449 1449 1450 1450 1451 1452 1451 1452 1457 1460 1457 1467 1474 1471 1465 1465 1464 1461 1459 1459 1457 1454 1452 1449 1446 1444 1442 1439 1437 1434 1432 1430 1428
1404 1410 1419 1420 1425 1431 1432 1434 1438 1443 1445 1446 1446 1447 1449 1450 1452 1455 1457 1461 1461 1472 1479 1474 1465 1462 1461 1460 1458 1455 1453 1452 1450 1447 1444 1442 1439 1437 1435 1434 1431 1429 1427 1426
1402 1408 1417 1425 1429 1432 1435 1436 1439 1441 1443 1444 1446 1448 1450 1454 1456 1461 1463 1469 1483 1476 1471 1465 1460 1458 1457 1455 1454 1451 1449 1448 1446 1443 1440 1437 1435 1433 1431 1430 1429 1427 1425 1424
1401 1411 1420 1426 1427 1434 1436 1437 1439 1440 1441 1443 1445 1449 1454 1462 1464 1464 1474 1479 1475 1467 1460 1458 1456 1454 1453 1451 1449 1447 1446 1444 1442 1439 1437 1434 1432 1430 1428 1427 1426 1424 1423 1421
1406 1413 1416 1421 1424 1430 1434 1436 1438 1439 1440 1443 1445 1451 1457 1462 1470 1469 1468 1467 1459 1456 1454 1453 1451 1449 1448 1447 1445 1443 1442 1440 1438 1435 1433 1431 1429 1428 1426 1425 1423 1421 1420 1419